Date,TemperatureHighF,TemperatureAvgF,TemperatureLowF,DewpointHighF,DewpointAvgF,DewpointLowF,HumidityHigh,HumidityAvg,HumidityLow,PressureMaxIn,PressureMinIn,WindSpeedMaxMPH,WindSpeedAvgMPH,GustSpeedMaxMPH,PrecipitationSumIn
2013-9-1,64,52,43,-100,-100,-100,0,0,100,0.00,40.00,0,-999,0,0.01
2013-9-2,65,52,45,-100,-100,-100,0,0,100,0.00,40.00,0,-999,0,0.01
2013-9-3,67,52,44,-100,-100,-100,0,0,100,0.00,40.00,0,-999,0,0.01
2013-9-4,66,54,45,-100,-100,-100,0,0,100,0.00,40.00,0,-999,0,0.01
2013-9-5,69,56,43,-100,-100,-100,0,0,100,0.00,40.00,0,-999,0,0.00
2013-9-6,70,57,44,-100,-100,-100,0,0,100,0.00,40.00,0,-999,0,0.00
2013-9-7,67,58,43,-100,-100,-100,0,0,100,0.00,40.00,0,-999,0,0.01
2013-9-8,67,57,44,-100,-100,-100,0,0,100,0.00,40.00,0,-999,0,0.00
2013-9-9,61,52,42,-100,-100,-100,0,0,100,0.00,40.00,0,-999,0,0.01
2013-9-10,54,50,47,-100,-100,-100,0,0,100,0.00,40.00,0,-999,0,0.00
2013-9-11,53,49,46,-100,-100,-100,0,0,100,0.00,40.00,0,-999,0,0.01
2013-9-12,54,48,45,-100,-100,-100,0,0,100,0.00,40.00,0,-999,0,0.00
2013-9-13,54,47,43,-100,-100,-100,0,0,100,0.00,40.00,0,-999,0,0.03
2013-9-14,55,46,40,-100,-100,-100,0,0,100,0.00,40.00,0,-999,0,0.00
2013-9-15,51,42,38,-100,-100,-100,0,0,100,0.00,40.00,0,-999,0,0.01
2013-9-16,53,43,38,-100,-100,-100,0,0,100,0.00,40.00,0,-999,0,0.01
2013-9-17,60,46,36,-100,-100,-100,0,0,100,0.00,40.00,0,-999,0,0.00
2013-9-18,44,42,39,-100,-100,-100,0,0,100,0.00,40.00,0,-999,0,0.02
2013-9-19,56,43,36,-100,-100,-100,0,0,100,0.00,40.00,0,-999,0,0.01
2013-9-20,61,48,31,-100,-100,-100,0,0,100,0.00,40.00,0,-999,0,0.00
2013-9-21,59,47,34,-100,-100,-100,0,0,100,0.00,40.00,0,-999,0,0.00
2013-9-22,50,41,35,-100,-100,-100,0,0,100,0.00,40.00,0,-999,0,0.04
2013-9-23,40,36,30,-100,-100,-100,0,0,100,0.00,40.00,0,-999,0,0.04
2013-9-24,54,37,27,-100,-100,-100,0,0,100,0.00,40.00,0,-999,0,0.01
2013-9-25,59,46,32,-100,-100,-100,0,0,100,0.00,40.00,0,-999,0,0.00
2013-9-26,58,48,40,-100,-100,-100,0,0,100,0.00,40.00,0,-999,0,0.00
2013-9-27,43,38,27,-100,-100,-100,0,0,100,0.00,40.00,0,-999,0,0.01
2013-9-28,49,32,21,-100,-100,-100,0,0,100,0.00,40.00,0,-999,0,0.01
2013-9-30,60,49,41,-100,-100,-100,0,0,100,0.00,40.00,0,-999,0,0.00